Temp
-13 -13 -14 -14 -14 -14 -14 -14 -14 -14 -14 -14 -15 -15 -15 -14 -15 -14 -15 -14 -14 -14 -15 -15 -14 -14 -14 -14 -14 -13 -13 -12 -12 -12 -12 -12 -11 -10 -10 -9 -10 -10 -10 -10 -9
-14 -14 -14 -14 -15 -15 -15 -15 -15 -15 -15 -15 -15 -15 -15 -15 -15 -15 -15 -15 -15 -15 -15 -15 -15 -15 -15 -15 -14 -14 -13 -13 -13 -13 -12 -12 -12 -11 -10 -9 -9 -10 -10 -9 -9
-15 -15 -15 -15 -15 -16 -16 -16 -16 -16 -15 -16 -16 -16 -16 -16 -16 -16 -16 -16 -16 -16 -16 -15 -15 -15 -15 -15 -15 -14 -13 -14 -13 -13 -13 -12 -12 -11 -11 -11 -10 -10 -11 -10 -9
-16 -16 -16 -16 -16 -16 -16 -16 -16 -17 -16 -16 -17 -16 -16 -16 -16 -16 -17 -17 -16 -16 -16 -16 -16 -16 -15 -15 -15 -14 -14 -14 -13 -13 -13 -12 -12 -12 -11 -11 -11 -11 -10 -10 -10
-17 -17 -17 -17 -17 -17 -17 -17 -17 -17 -17 -17 -17 -17 -17 -17 -17 -17 -17 -17 -17 -17 -16 -17 -16 -16 -16 -15 -15 -14 -14 -13 -14 -14 -14 -13 -12 -12 -12 -12 -11 -11 -11 -11 -10
-19 -19 -19 -18 -18 -18 -18 -18 -17 -17 -17 -17 -18 -17 -17 -17 -18 -18 -18 -18 -18 -17 -17 -17 -17 -16 -16 -16 -15 -14 -14 -14 -14 -13 -13 -13 -12 -12 -11 -12 -12 -11 -11 -11 -11
-22 -21 -21 -21 -20 -19 -19 -19 -18 -18 -18 -18 -18 -18 -18 -18 -18 -19 -19 -19 -19 -18 -18 -17 -17 -16 -16 -15 -15 -15 -14 -14 -14 -13 -13 -12 -12 -13 -13 -12 -11 -11 -11 -11 -11
-23 -23 -23 -23 -22 -22 -21 -20 -20 -19 -19 -18 -19 -19 -18 -19 -19 -20 -19 -19 -19 -18 -18 -17 -17 -17 -16 -16 -15 -15 -14 -15 -15 -15 -15 -13 -14 -14 -13 -12 -11 -10 -10 -10 -10
-24 -25 -24 -24 -24 -23 -22 -21 -21 -20 -20 -19 -19 -19 -19 -19 -19 -19 -20 -20 -19 -19 -18 -18 -17 -17 -16 -16 -16 -15 -16 -17 -18 -17 -17 -15 -14 -15 -14 -12 -11 -11 -11 -11 -10
-26 -25 -25 -25 -25 -24 -23 -22 -22 -21 -20 -20 -20 -20 -19 -20 -20 -20 -20 -20 -19 -19 -18 -18 -17 -17 -17 -17 -18 -18 -18 -19 -19 -19 -19 -18 -17 -18 -17 -16 -14 -14 -13 -12 -11
-26 -26 -25 -25 -25 -24 -24 -22 -22 -21 -21 -20 -20 -20 -20 -20 -20 -21 -20 -20 -19 -19 -18 -18 -17 -18 -19 -19 -20 -20 -19 -20 -20 -19 -19 -19 -19 -20 -19 -20 -18 -19 -17 -16 -16
-26 -26 -26 -25 -25 -25 -24 -22 -22 -22 -21 -21 -21 -21 -20 -20 -20 -21 -20 -19 -19 -19 -18 -18 -19 -19 -20 -20 -20 -20 -20 -20 -20 -20 -19 -19 -19 -19 -20 -20 -19 -20 -20 -21 -20
-26 -26 -26 -25 -25 -25 -24 -23 -22 -22 -22 -22 -22 -21 -21 -21 -21 -20 -20 -19 -19 -19 -19 -20 -19 -20 -21 -20 -20 -20 -20 -20 -19 -19 -19 -19 -19 -19 -19 -19 -19 -19 -20 -20 -19
-26 -25 -25 -26 -25 -25 -25 -23 -22 -22 -22 -21 -21 -21 -21 -20 -20 -20 -20 -20 -20 -21 -20 -20 -21 -21 -21 -21 -20 -20 -20 -19 -18 -19 -19 -19 -19 -19 -19 -20 -20 -19 -19 -19 -19
-25 -25 -25 -26 -25 -25 -24 -24 -23 -22 -22 -22 -21 -21 -21 -21 -21 -21 -21 -21 -21 -21 -22 -21 -21 -21 -21 -20 -20 -19 -19 -18 -19 -19 -19 -18 -18 -19 -18 -19 -19 -19 -19 -19 -19
-25 -25 -26 -26 -25 -24 -24 -23 -22 -23 -22 -21 -21 -21 -21 -21 -21 -22 -22 -23 -22 -22 -22 -21 -21 -21 -20 -20 -19 -19 -18 -18 -18 -18 -18 -18 -18 -18 -18 -18 -18 -19 -19 -18 -18
-25 -25 -25 -25 -25 -24 -23 -23 -22 -21 -22 -21 -21 -21 -21 -21 -22 -23 -23 -23 -23 -22 -21 -21 -21 -20 -20 -20 -19 -19 -19 -18 -18 -18 -18 -18 -17 -17 -17 -18 -17 -17 -17 -16 -16
-25 -25 -25 -24 -23 -23 -23 -22 -22 -22 -21 -21 -21 -21 -22 -22 -23 -23 -23 -22 -22 -22 -21 -21 -20 -20 -20 -19 -19 -19 -19 -18 -18 -18 -18 -17 -16 -16 -16 -17 -16 -16 -15 -15 -15
-24 -24 -23 -23 -22 -22 -21 -22 -22 -22 -22 -21 -22 -22 -22 -23 -22 -22 -22 -22 -21 -21 -20 -20 -20 -19 -19 -19 -19 -18 -18 -18 -17 -18 -16 -16 -17 -17 -16 -16 -15 -15 -15 -15 -15
-23 -22 -22 -22 -21 -21 -21 -21 -21 -22 -21 -21 -22 -22 -22 -22 -22 -22 -21 -21 -21 -20 -20 -20 -19 -19 -19 -19 -19 -18 -18 -18 -17 -17 -16 -16 -16 -16 -16 -16 -16 -15 -15 -15 -15
-21 -21 -21 -20 -20 -20 -20 -20 -21 -21 -21 -21 -22 -22 -22 -22 -21 -21 -20 -20 -20 -20 -20 -20 -19 -18 -18 -18 -18 -18 -17 -17 -16 -16 -16 -16 -16 -16 -16 -16 -16 -15 -15 -15 -15
-20 -20 -20 -20 -20 -20 -20 -21 -21 -21 -21 -22 -21 -21 -21 -21 -21 -21 -20 -20 -20 -20 -19 -19 -19 -18 -18 -18 -18 -17 -17 -17 -17 -17 -16 -15 -16 -16 -16 -16 -16 -15 -15 -15 -15
-21 -20 -21 -20 -20 -21 -20 -20 -21 -21 -21 -21 -20 -20 -20 -21 -21 -21 -21 -20 -20 -19 -19 -19 -19 -18 -17 -17 -17 -17 -17 -17 -17 -16 -16 -15 -16 -16 -16 -16 -16 -16 -16 -16 -15
-19 -19 -19 -20 -20 -20 -20 -20 -20 -20 -20 -20 -20 -20 -20 -20 -20 -20 -20 -19 -19 -19 -19 -19 -18 -18 -17 -17 -16 -16 -17 -16 -16 -16 -16 -15 -15 -16 -16 -16 -15 -15 -15 -15 -15
-16 -17 -18 -19 -19 -19 -19 -19 -20 -19 -19 -19 -19 -20 -19 -19 -20 -20 -20 -20 -20 -19 -19 -18 -18 -18 -17 -17 -17 -16 -16 -16 -16 -16 -17 -15 -16 -15 -15 -15 -15 -15 -15 -14 -14
-14 -15 -16 -18 -18 -18 -18 -19 -19 -19 -19 -19 -19 -19 -19 -19 -19 -19 -19 -19 -19 -19 -19 -18 -18 -18 -18 -17 -17 -17 -17 -17 -16 -16 -17 -16 -16 -16 -16 -16 -16 -16 -15 -15 -15
-13 -13 -14 -15 -16 -17 -18 -18 -18 -18 -19 -19 -19 -19 -19 -19 -19 -19 -19 -19 -18 -18 -18 -18 -18 -18 -18 -18 -18 -18 -18 -17 -17 -17 -17 -17 -17 -17 -17 -17 -16 -17 -17 -16 -16
Height
5696 5693 5692 5690 5688 5687 5687 5688 5688 5690 5691 5693 5694 5696 5696 5698 5700 5703 5705 5707 5706 5709 5711 5711 5712 5715 5715 5714 5715 5715 5719 5721 5725 5727 5731 5732 5735 5742 5744 5748 5756 5753 5756 5760 5764
5676 5673 5671 5671 5671 5670 5670 5672 5673 5675 5677 5680 5682 5682 5686 5687 5689 5692 5696 5696 5698 5699 5701 5703 5703 5706 5706 5705 5707 5706 5710 5707 5712 5714 5716 5722 5724 5732 5731 5736 5743 5748 5747 5748 5749
5656 5654 5654 5653 5653 5653 5653 5655 5657 5660 5663 5666 5668 5671 5675 5676 5679 5681 5683 5686 5688 5690 5692 5694 5694 5697 5697 5698 5698 5699 5699 5695 5699 5702 5702 5707 5711 5717 5720 5726 5729 5729 5734 5737 5742
5636 5634 5633 5633 5633 5634 5636 5638 5640 5644 5648 5652 5655 5658 5663 5666 5671 5671 5673 5675 5678 5680 5681 5684 5685 5687 5689 5690 5689 5693 5690 5686 5687 5688 5691 5695 5696 5702 5705 5717 5717 5716 5720 5722 5730
5613 5611 5612 5612 5614 5616 5618 5622 5626 5631 5633 5639 5642 5646 5651 5656 5660 5659 5663 5665 5668 5671 5673 5674 5675 5678 5681 5679 5681 5682 5680 5679 5676 5677 5676 5679 5684 5688 5695 5697 5701 5704 5706 5711 5713
5592 5590 5589 5591 5593 5596 5599 5605 5610 5616 5620 5627 5630 5634 5640 5645 5649 5649 5653 5656 5658 5661 5664 5665 5666 5668 5671 5670 5673 5670 5670 5668 5664 5663 5663 5667 5674 5672 5681 5680 5685 5692 5692 5693 5697
5572 5570 5571 5571 5575 5578 5582 5588 5596 5602 5607 5613 5617 5622 5628 5633 5640 5640 5644 5647 5650 5652 5655 5656 5657 5659 5660 5661 5661 5660 5660 5656 5654 5652 5650 5656 5667 5661 5656 5657 5666 5668 5672 5673 5683
5553 5552 5553 5556 5557 5563 5568 5576 5582 5590 5596 5604 5608 5612 5618 5625 5627 5629 5635 5638 5641 5644 5646 5648 5649 5650 5651 5652 5650 5650 5649 5646 5643 5640 5640 5646 5650 5643 5641 5642 5649 5652 5654 5657 5668
5527 5531 5535 5539 5543 5549 5558 5567 5570 5578 5586 5596 5599 5604 5610 5616 5621 5623 5627 5631 5634 5637 5638 5639 5641 5641 5642 5641 5640 5640 5638 5637 5634 5631 5630 5630 5631 5624 5624 5627 5630 5631 5633 5637 5649
5511 5517 5524 5529 5533 5539 5549 5559 5561 5570 5578 5585 5592 5598 5606 5611 5614 5618 5622 5625 5628 5629 5630 5632 5633 5633 5632 5631 5630 5630 5630 5629 5626 5623 5621 5619 5614 5610 5609 5608 5608 5608 5612 5619 5629
5507 5514 5518 5522 5526 5534 5543 5550 5560 5566 5573 5580 5586 5592 5600 5603 5609 5612 5615 5619 5621 5622 5623 5624 5625 5624 5624 5622 5623 5623 5623 5622 5620 5619 5615 5612 5608 5605 5605 5603 5600 5597 5596 5602 5613
5508 5511 5514 5518 5524 5528 5536 5543 5552 5561 5568 5575 5582 5589 5594 5599 5604 5607 5611 5614 5614 5614 5616 5617 5616 5616 5615 5616 5618 5618 5618 5617 5618 5615 5612 5608 5605 5603 5603 5603 5600 5596 5593 5596 5605
5509 5511 5514 5517 5522 5525 5531 5539 5548 5557 5566 5574 5580 5586 5592 5597 5601 5603 5605 5606 5606 5607 5608 5609 5610 5610 5612 5613 5614 5614 5614 5615 5615 5612 5610 5606 5604 5601 5602 5600 5601 5600 5601 5602 5609
5513 5515 5516 5519 5523 5525 5529 5538 5548 5556 5565 5575 5580 5586 5591 5593 5596 5597 5598 5601 5601 5603 5603 5604 5606 5608 5610 5611 5613 5612 5613 5613 5612 5611 5609 5606 5605 5602 5601 5599 5597 5599 5602 5605 5612
5517 5517 5518 5520 5523 5528 5535 5542 5550 5560 5568 5576 5581 5585 5588 5591 5593 5593 5594 5595 5597 5598 5600 5603 5605 5609 5610 5611 5612 5613 5612 5613 5611 5609 5607 5606 5602 5600 5598 5598 5598 5600 5601 5608 5615
5523 5523 5521 5522 5528 5533 5539 5546 5555 5565 5569 5576 5580 5583 5586 5588 5588 5589 5591 5593 5595 5597 5599 5602 5607 5609 5610 5612 5612 5612 5613 5611 5610 5608 5608 5605 5602 5599 5600 5599 5601 5604 5607 5615 5621
5531 5530 5529 5531 5537 5541 5547 5554 5562 5567 5573 5578 5581 5584 5586 5587 5587 5588 5591 5594 5597 5600 5603 5605 5608 5609 5611 5612 5613 5614 5613 5611 5611 5611 5610 5607 5605 5603 5603 5604 5606 5610 5617 5623 5630
5539 5539 5540 5543 5547 5553 5558 5564 5566 5571 5576 5580 5583 5586 5588 5589 5590 5593 5595 5598 5600 5603 5605 5608 5611 5610 5612 5614 5614 5613 5612 5612 5613 5612 5612 5609 5610 5611 5611 5613 5611 5620 5625 5633 5637
5549 5551 5554 5556 5558 5559 5564 5568 5569 5576 5580 5584 5586 5589 5591 5592 5595 5597 5599 5601 5604 5605 5608 5609 5610 5611 5614 5615 5616 5615 5614 5614 5615 5613 5613 5612 5615 5616 5617 5621 5625 5631 5635 5640 5643
5562 5562 5564 5565 5566 5569 5574 5575 5577 5582 5586 5588 5591 5592 5595 5597 5600 5601 5603 5605 5607 5609 5610 5612 5612 5615 5617 5618 5618 5615 5616 5618 5616 5617 5617 5619 5620 5623 5628 5629 5632 5636 5642 5645 5649
5577 5579 5579 5578 5579 5579 5583 5581 5584 5589 5592 5595 5596 5597 5600 5602 5604 5606 5608 5609 5609 5611 5612 5614 5616 5619 5620 5621 5621 5621 5621 5622 5622 5622 5622 5624 5625 5631 5634 5637 5641 5643 5648 5651 5654
5592 5592 5592 5591 5591 5589 5589 5591 5595 5597 5599 5601 5603 5605 5605 5608 5609 5610 5611 5612 5612 5614 5615 5617 5619 5622 5625 5625 5626 5625 5627 5627 5629 5629 5630 5629 5635 5637 5640 5643 5646 5648 5651 5654 5657
5600 5600 5597 5596 5595 5595 5597 5600 5603 5605 5606 5607 5609 5611 5613 5614 5616 5616 5617 5617 5618 5619 5621 5623 5625 5628 5629 5632 5631 5631 5633 5634 5635 5635 5637 5639 5637 5643 5645 5648 5650 5652 5655 5657 5660
5609 5608 5605 5603 5604 5607 5608 5610 5611 5612 5614 5615 5618 5619 5621 5621 5622 5622 5623 5623 5624 5626 5627 5629 5631 5633 5635 5635 5636 5638 5638 5639 5640 5641 5644 5646 5644 5646 5650 5652 5654 5657 5659 5661 5663
5621 5619 5617 5616 5616 5617 5618 5618 5620 5621 5624 5625 5627 5627 5628 5628 5629 5629 5629 5630 5631 5632 5633 5635 5636 5637 5639 5640 5641 5642 5644 5644 5645 5646 5648 5650 5651 5651 5652 5655 5658 5659 5661 5663 5665
5637 5633 5628 5628 5628 5628 5628 5628 5629 5630 5632 5633 5635 5635 5635 5636 5637 5636 5636 5637 5637 5638 5639 5641 5642 5641 5642 5643 5644 5645 5647 5649 5649 5650 5651 5653 5654 5655 5656 5657 5658 5658 5662 5665 5667
5653 5648 5643 5640 5639 5638 5637 5638 5638 5638 5639 5639 5640 5642 5642 5643 5643 5644 5643 5643 5643 5644 5644 5645 5645 5646 5647 5646 5647 5648 5649 5650 5651 5653 5654 5655 5657 5657 5658 5660 5661 5662 5664 5665 5667
Wind_Speed
61 61 60 59 58 57 55 54 52 52 53 54 52 51 48 47 46 46 44 43 44 44 42 41 41 41 40 40 40 45 47 48 47 49 48 47 50 50 53 54 48 51 52 51 52
65 65 65 64 61 58 57 54 54 53 53 55 53 52 51 48 46 47 48 47 44 44 44 44 42 41 38 35 35 37 42 47 48 51 54 50 51 49 54 56 54 51 54 57 60
69 68 66 65 63 62 60 58 55 54 54 53 55 54 53 49 47 44 45 47 46 44 44 46 45 44 43 39 36 34 37 45 45 47 52 55 55 54 56 54 55 59 54 59 62
63 62 62 61 61 60 59 59 57 55 55 54 53 52 51 49 46 43 42 43 45 44 42 44 43 42 42 42 40 34 35 39 45 47 48 52 56 55 59 56 57 61 62 61 62
66 65 64 62 61 59 58 58 57 56 55 53 51 51 50 48 46 44 43 41 42 43 42 41 41 40 40 37 37 37 37 38 39 42 47 49 52 52 52 56 59 62 65 65 66
65 63 61 61 60 58 55 54 52 52 52 50 45 50 50 49 45 40 41 39 39 39 39 38 37 38 39 39 36 36 37 36 39 42 45 48 47 52 52 58 60 60 65 70 71
58 55 59 58 57 56 53 50 46 44 43 44 45 46 45 46 42 42 40 41 39 37 36 34 34 35 36 34 32 32 34 38 36 39 44 41 38 48 55 59 60 65 69 73 73
55 55 50 52 54 45 43 42 38 33 34 31 37 39 38 30 29 35 37 34 33 35 33 32 33 36 38 37 35 34 37 37 36 36 37 34 32 43 51 57 60 62 66 68 68
62 45 40 36 30 32 33 27 29 30 29 32 34 29 31 37 34 33 31 31 31 32 30 30 29 28 30 33 35 36 36 32 28 29 29 30 31 40 44 50 55 62 65 67 65
15 19 22 26 29 26 17 21 21 26 28 31 36 34 28 27 29 27 27 26 27 28 27 27 27 28 29 31 29 31 30 24 19 23 13 16 21 26 29 31 39 46 58 64 64
5 13 16 12 16 24 22 25 21 16 23 24 23 24 25 23 20 20 22 22 22 22 24 27 28 29 27 25 20 24 23 17 12 10 11 11 12 16 8 10 11 17 28 38 46
7 9 11 19 19 24 19 23 31 20 16 17 25 20 23 30 21 16 18 19 19 21 25 27 26 24 21 15 14 20 14 11 9 8 7 11 9 9 9 9 4 10 5 23 32
4 1 1 5 8 16 21 25 26 29 24 20 16 18 15 15 12 16 18 18 20 23 26 21 21 10 8 12 15 11 11 8 6 9 4 4 6 9 14 13 12 8 9 22 25
8 5 7 6 7 18 19 20 26 26 26 23 17 14 11 11 14 17 17 18 20 19 16 13 12 11 10 10 8 9 9 8 7 3 7 6 5 4 12 12 5 10 17 19 23
8 11 4 5 11 19 26 27 21 21 16 15 17 12 11 11 13 16 16 16 13 9 9 16 14 9 9 11 10 7 4 2 3 4 14 7 15 10 12 10 12 11 15 26 20
23 20 12 14 24 26 26 33 29 25 19 16 14 10 8 9 11 12 9 7 9 12 20 15 9 8 11 12 10 12 12 9 9 9 7 9 9 8 8 15 14 11 19 19 20
21 22 22 26 32 33 35 36 20 21 20 15 14 15 11 8 10 14 15 13 8 15 14 7 7 10 11 10 13 10 8 12 17 7 1 4 3 20 21 20 17 22 24 24 19
25 27 29 34 42 39 30 19 24 23 17 23 19 15 15 15 14 12 11 12 15 12 8 8 11 14 13 20 11 13 8 13 18 13 9 12 20 24 25 30 20 24 28 23 21
35 41 40 43 35 28 28 23 25 18 23 25 22 18 16 15 17 18 19 17 14 10 13 12 10 12 19 13 16 15 12 14 12 18 28 32 22 23 26 24 20 27 24 26 24
47 45 43 35 32 27 24 23 21 26 25 25 21 21 20 20 19 19 18 16 16 14 13 15 16 18 16 18 17 14 22 23 26 29 33 30 31 32 23 21 21 25 22 28 28
40 34 29 26 25 25 18 21 25 31 25 22 22 22 24 22 20 18 22 21 19 12 15 13 17 17 19 15 18 20 24 26 27 28 26 24 34 32 27 20 15 14 23 26 20
33 28 26 23 17 14 11 17 30 24 23 20 23 25 22 21 17 17 20 18 14 10 14 16 18 21 17 18 21 25 23 22 21 22 21 30 29 32 23 20 20 19 20 27 17
33 24 22 21 22 25 30 29 26 23 23 24 24 23 20 16 21 24 20 16 16 19 20 18 18 21 18 18 20 21 21 21 21 24 20 23 33 30 29 23 19 17 15 18 20
41 35 29 29 31 30 32 29 27 26 27 27 24 22 20 24 26 24 23 19 20 19 19 21 19 19 21 27 24 21 22 23 23 24 24 24 29 27 25 22 23 23 22 19 20
51 43 36 31 32 31 30 30 28 30 28 27 23 22 24 25 24 23 25 24 18 18 18 15 17 17 20 20 20 19 18 20 22 22 16 21 24 26 24 25 24 23 21 20 19
58 50 43 31 29 29 28 28 27 24 21 19 20 24 23 22 21 23 23 20 19 17 14 14 13 12 12 14 14 15 17 17 17 17 18 16 15 17 17 16 13 13 14 15 13
53 53 53 48 37 26 24 23 21 22 22 22 23 21 21 22 21 21 23 20 17 14 11 9 8 8 9 8 9 9 10 10 9 10 13 11 10 7 8 9 9 8 8 7 7
Wind_Direction
279 276 275 275 275 275 272 271 270 266 263 261 262 262 262 263 265 268 270 269 270 268 269 268 268 270 271 274 271 266 260 258 256 256 254 251 250 248 246 247 246 252 255 257 256
276 273 271 270 270 271 269 267 267 265 263 262 260 262 264 263 263 265 268 269 269 269 269 268 268 268 267 269 274 274 269 262 259 255 254 253 253 251 252 250 249 246 250 252 256
275 276 276 275 271 268 265 263 262 262 261 260 262 264 264 263 264 266 266 268 267 268 266 266 266 268 267 266 274 278 278 263 264 258 256 254 254 253 250 251 255 256 251 253 253
276 273 273 272 270 267 265 261 260 257 257 259 260 263 265 264 266 264 263 265 267 266 267 266 266 266 268 265 271 275 273 268 263 263 259 258 254 251 252 249 252 255 257 257 255
274 271 268 265 263 262 261 260 260 257 253 256 259 261 261 264 266 266 265 264 265 263 265 266 266 268 265 271 275 276 275 271 266 260 260 256 256 255 254 255 249 250 252 254 256
282 278 276 271 265 261 260 259 258 256 253 253 256 259 261 262 262 261 262 261 260 261 264 265 268 268 266 268 273 276 282 276 267 261 258 257 258 260 258 252 253 250 251 252 252
278 279 281 281 272 264 263 263 261 255 251 250 258 259 258 262 258 253 254 257 257 261 263 267 269 266 260 269 276 288 287 277 266 260 255 255 257 248 245 246 245 247 246 247 250
280 285 284 284 276 268 263 261 259 249 244 250 235 245 246 253 234 245 254 247 252 257 261 264 266 264 264 274 287 286 281 274 270 260 257 253 244 247 245 245 246 245 247 246 247
289 293 287 272 270 255 256 255 245 243 239 221 230 237 241 234 245 254 244 241 250 258 261 266 272 273 273 275 279 281 272 270 269 265 257 263 254 257 255 252 250 249 244 244 243
253 253 255 259 248 254 228 207 228 229 228 235 234 233 226 242 246 243 243 247 253 256 265 268 272 277 272 271 277 272 272 278 257 263 281 300 287 285 282 272 258 253 249 243 241
270 233 264 256 232 240 234 188 175 209 218 224 223 220 209 228 223 229 235 248 256 263 269 272 271 269 275 277 263 271 271 267 244 262 304 314 303 292 261 256 264 259 242 231 227
301 267 275 242 273 256 219 200 183 173 202 195 216 222 221 229 239 233 248 253 262 269 269 268 269 273 272 258 258 262 252 239 238 278 312 310 299 289 286 321 293 120 117 195 194
13 348 250 195 211 227 204 186 175 178 176 172 176 188 198 203 229 238 243 255 261 263 264 272 270 242 223 251 257 228 205 209 209 259 266 341 288 235 265 285 280 246 244 180 171
79 45 120 118 127 128 143 173 175 189 192 178 179 180 177 212 227 240 251 255 257 262 270 256 172 178 211 235 222 175 184 198 240 286 273 324 323 302 254 248 209 195 216 190 183
49 83 83 123 151 137 116 123 124 167 168 170 160 174 195 219 235 247 249 252 256 253 194 161 171 195 217 205 158 148 155 161 303 313 331 322 303 307 307 207 181 188 193 178 189
68 47 80 122 127 127 119 110 118 119 127 146 158 175 188 198 222 237 233 197 159 161 158 170 179 177 179 163 141 133 121 74 35 8 358 3 306 309 97 127 112 128 158 171 168
66 46 84 117 120 120 116 114 113 123 129 139 152 139 134 122 122 125 131 145 154 159 158 166 165 173 170 158 132 95 65 34 47 68 329 6 63 82 74 107 121 132 143 137 147
67 79 95 104 112 111 102 112 125 130 124 126 126 124 114 106 107 119 124 118 124 128 128 129 147 153 161 134 98 98 70 32 64 106 119 123 112 93 109 95 121 122 107 104 135
92 99 100 107 110 108 122 131 117 126 125 116 109 115 116 106 108 109 113 116 121 102 110 127 153 162 144 124 100 88 66 35 99 95 103 112 105 88 87 114 120 126 109 120 126
102 107 113 112 114 117 110 105 110 120 121 119 111 107 112 103 111 108 102 111 111 89 103 106 123 132 131 110 88 70 76 90 110 103 99 122 125 118 114 102 97 116 113 107 102
81 81 83 83 96 98 98 90 111 116 118 117 108 108 113 107 100 102 104 90 81 83 97 108 128 136 120 105 91 86 90 106 113 111 119 93 108 127 132 117 116 111 113 102 113
61 66 67 67 68 71 74 93 115 112 110 112 102 97 98 98 110 105 68 68 84 90 100 110 119 132 120 106 92 88 91 95 106 103 117 115 109 113 127 114 123 113 104 109 120
57 62 54 59 69 85 99 108 104 106 109 107 103 103 102 96 91 78 87 96 103 98 105 113 119 134 117 110 106 102 102 100 97 101 112 120 123 120 121 118 114 111 105 97 113
53 58 64 76 90 95 99 95 94 97 99 103 102 94 97 98 94 91 95 103 103 104 107 109 121 130 122 114 115 116 110 108 107 105 107 106 107 121 123 124 118 117 117 121 123
54 59 68 88 98 97 90 90 91 88 95 102 93 90 96 94 90 84 82 92 109 109 116 119 123 128 130 129 129 128 125 121 120 123 117 122 125 123 127 132 133 131 131 128 128
50 56 62 76 94 92 87 87 84 93 101 99 97 101 98 97 91 87 88 91 94 104 109 136 139 150 148 148 143 140 142 140 142 138 139 144 140 142 144 147 148 146 151 155 164
51 53 55 60 66 76 85 84 83 93 92 103 112 102 105 105 99 91 89 89 94 101 104 113 121 141 155 159 167 158 156 158 153 158 162 164 162 177 172 170 176 181 199 201 218